EDT,Max TemperatureF,Mean TemperatureF,Min TemperatureF,Max Dew PointF,MeanDew PointF,Min DewpointF,Max Humidity, Mean Humidity, Min Humidity, Max Sea Level PressureIn, Mean Sea Level PressureIn, Min Sea Level PressureIn, Max VisibilityMiles, Mean VisibilityMiles, Min VisibilityMiles, Max Wind SpeedMPH, Mean Wind SpeedMPH, Max Gust SpeedMPH,PrecipitationIn, CloudCover, Events, WindDirDegrees
2012-10-1,61,57,52,57,55,51,100,92,84,29.97,29.94,29.90,10,6,2,12,5,14,0.11,7,Rain,39
2012-10-2,68,63,57,66,61,57,100,97,93,30.00,29.92,29.88,10,2,0,12,5,,0.34,8,Fog-Rain,22
2012-10-3,82,74,66,67,66,64,100,79,58,30.16,30.07,29.97,10,4,0,13,2,15,T,3,Fog,197
2012-10-4,80,67,53,65,59,52,93,66,39,30.20,30.17,30.14,10,10,10,10,3,17,0.01,1,Rain,230
2012-10-5,79,64,49,58,52,48,96,66,36,30.20,30.12,30.01,10,10,5,12,2,14,0.00,0,,237
2012-10-6,78,65,52,58,52,43,100,74,47,30.01,29.95,29.91,10,10,5,14,5,21,0.00,1,,255
2012-10-7,57,48,39,49,45,39,100,81,61,30.20,30.12,30.02,10,5,0,12,4,16,0.29,7,Fog-Rain,44
2012-10-8,48,45,41,43,41,39,100,88,76,30.30,30.21,30.17,10,6,0,14,5,,0.04,7,Fog-Rain,15
2012-10-9,63,54,44,52,46,42,100,80,60,30.21,30.15,30.09,10,10,6,7,2,13,T,8,Rain,13
2012-10-10,69,58,46,52,47,40,100,98,96,30.13,30.03,29.97,10,7,0,15,5,25,0.00,3,Fog,251
2012-10-11,64,51,37,41,35,24,89,61,32,30.32,30.24,30.15,10,10,10,10,2,21,0.00,0,,200
2012-10-12,71,56,40,45,40,35,100,66,31,30.41,30.25,30.17,10,10,10,15,5,23,0.00,0,,27
2012-10-13,62,49,36,43,38,33,100,70,40,30.52,30.43,30.34,10,10,10,13,3,15,0.00,0,,123
2012-10-14,74,57,39,58,49,39,100,75,49,30.32,30.18,30.01,10,9,2,21,8,32,0.00,2,,201
2012-10-15,71,61,51,61,55,37,97,69,40,29.97,29.83,29.71,10,10,5,15,7,24,0.14,5,Rain,209
2012-10-16,68,53,38,43,40,38,100,66,32,29.96,29.91,29.87,10,10,10,12,1,39,0.00,0,,256
2012-10-17,69,54,39,48,44,40,100,70,40,30.02,29.96,29.91,10,10,10,16,4,21,0.00,0,,178
2012-10-18,68,56,43,63,54,43,100,86,72,29.95,29.87,29.77,10,8,2,12,3,,0.26,5,Rain-Thunderstorm,172
2012-10-19,71,58,45,63,52,38,100,66,31,29.79,29.75,29.65,10,5,0,16,3,21,0.00,4,Fog,215
2012-10-20,65,54,42,44,38,35,96,66,36,29.97,29.84,29.72,10,10,10,14,3,23,0.00,0,,262
2012-10-21,65,50,35,41,37,34,100,67,34,30.16,30.10,29.99,10,10,9,9,1,15,0.00,0,,304
2012-10-22,73,54,35,47,41,37,100,68,35,30.25,30.19,30.14,10,10,10,8,1,9,0.00,0,,197
2012-10-23,81,62,43,52,49,43,100,67,33,30.18,30.13,30.07,10,10,5,14,3,18,0.00,0,,196
2012-10-24,83,65,47,54,49,43,100,62,24,30.18,30.13,30.08,10,10,9,9,2,,0.00,0,,223
2012-10-25,80,65,49,54,51,49,100,68,35,30.18,30.14,30.12,10,10,10,13,2,,0.00,0,,112
2012-10-26,69,62,55,59,57,52,100,84,68,30.20,30.11,30.03,10,7,2,15,6,29,0.00,5,,30
2012-10-27,68,63,58,59,55,48,97,78,59,30.03,29.90,29.82,10,9,3,18,12,26,0.03,6,Rain,27
2012-10-28,64,57,49,51,48,44,89,71,52,29.81,29.70,29.63,10,10,6,21,8,26,0.10,6,Rain,8
2012-10-29,49,45,40,46,39,32,93,79,65,29.62,29.42,29.12,10,9,4,18,9,32,0.35,8,Rain,292
2012-10-30,44,40,36,32,29,27,82,68,53,29.52,29.32,29.11,10,10,10,18,10,33,T,7,Rain,261
2012-10-31,52,46,39,33,31,30,70,58,46,29.73,29.63,29.52,10,10,10,16,7,29,0.01,5,,261